Regional Weather Roundup
Issued by NWS

Home | Current Version | Previous Version | Graphics & Text | Print | Product List | Glossary On
Versions: 1 2 3 4 5 6 7 8 9 10 11 12 13 14 15 16 17 18 19 20 21 22 23 24 25 26 27 28 29 30 31 32 33 34 35 36 37 38 39 40 41 42 43 44 45 46 47 48 49 50
000
ASUS43 KLOT 261708
RWRIL

ILLINOIS REGIONAL WEATHER ROUNDUP
NATIONAL WEATHER SERVICE CHICAGO/ROMEOVILLE IL
1200 PM CDT MON SEP 26 2016

NOTE: "FAIR" INDICATES FEW OR NO CLOUDS BELOW 12,000 FEET WITH NO
SIGNIFICANT WEATHER AND/OR OBSTRUCTIONS TO VISIBILITY.

* THESE STATIONS ARE NOT UNDER NWS QUALITY CONTROL. THEY ALSO MAY NOT
  REPORT WEATHER SUCH AS PRECIPITATION OR FOG.

ILZ001-002-007-009-015-016-024-261800-
NORTHWEST ILLINOIS

CITY           SKY/WX    TMP DP  RH WIND       PRES   REMARKS
MOLINE         SUNNY     68  34  28 W20G30    30.06F
STERLING*      SUNNY     67  39  35 W20G26    30.03F
SAVANNA*       SUNNY     65  37  35 W15G24    30.02F
$$

ILZ003-004-008-010-011-017-018-261800-
NORTH CENTRAL ILLINOIS

CITY           SKY/WX    TMP DP  RH WIND       PRES   REMARKS
ROCKFORD       MOSUNNY   66  37  34 NW23G38   30.01F
FREEPORT*      SUNNY     63  37  37 W21G32    30.02F
ROCHELLE*      SUNNY     65  38  36 W24G32    30.01F
DE KALB*       SUNNY     65  37  36 W23G29    30.00F
$$

ILZ005-006-012>014-019>023-261800-
NORTHEAST ILLINOIS

CITY           SKY/WX    TMP DP  RH WIND       PRES   REMARKS
CHICAGO-OHARE  MOSUNNY   67  37  33 W20G36    29.97F
CHICAGO-MIDWAY MOSUNNY   69  36  29 W18G29    29.98F
AURORA         SUNNY     68  38  33 W20G35    30.00F
LANSING*       SUNNY     67  43  41 W18G29    29.99F
JOLIET*        SUNNY     69  38  32 W10G25    30.01F
WAUKEGAN       PTSUNNY   65  43  44 VRB7G24   29.93F
DUPAGE AIRPORT SUNNY     66  37  34 W20G29    29.99F
KANKAKEE*      SUNNY     69  36  30 W16G26    30.04F
WHEELING       SUNNY     66  39  37 W15G23    29.98S
MORRIS*        SUNNY     69  34  27 W22G28    30.01F
ROMEOVILLE*    SUNNY     68  42  38 W20G32    30.00F
NORTHERLY ISL    N/A     66  36  32 W22         N/A
$$

LMZ740>746-261800-
SOUTHERN LAKE MICHIGAN

STATION/POSITION SKY/WX   TEMP    WIND        PRES    VSBY  WAVE
                          AIR SEA DIR/SP/G                  HT/PER
                          (F)     (DEG/KT/KT) (MB)    (MI)  (FT/S)
SOUTHERN BUOY              62 71  250/ 21/ 25 1012.5F         5/ 5
WILMETTE HARBOR            63 62  300/ 19/ 27   N/A           3/ 3
HARRISON CRIB              64     260/ 22/ 24   N/A
BURNHAM HARBOR             66     240/ 20       N/A
CALUMET HARBOR             66     230/ 11/ 24 1015.0F
BURNS HARBOR               64     260/ 19/ 24 1015.9F
MICHIGAN CITY              63     240/ 24/ 27   N/A
MICHIGAN CITY 6N           65 66  270/ 17/ 23   N/A           5/ 5
ST. JOSEPH                 64 65  270/ 19/ 27 1014.4F         7/ 6
$$

ILZ025>027-034>036-040-047-049-050-058-095>099-261800-
WEST-CENTRAL ILLINOIS

CITY           SKY/WX    TMP DP  RH WIND       PRES   REMARKS
QUINCY         SUNNY     69  34  27 W17G23    30.16F
GALESBURG*     SUNNY     67  35  31 W21G31    30.10F
MACOMB*        SUNNY     69  33  26 W23G29    30.14F
JACKSONVILLE*  SUNNY     70  37  30 W12G20    30.14F
PITTSFIELD*    SUNNY     69  38  31 W15G22    30.17F
$$

ILZ028>032-037-038-041>044-048-051>054-059>061-261800-
CENTRAL ILLINOIS

CITY           SKY/WX    TMP DP  RH WIND       PRES   REMARKS
PONTIAC        SUNNY     70  37  29 W18G29    30.05F
BLOOMINGTON    SUNNY     67  37  33 W18G26    30.09F
DECATUR        SUNNY     70  39  32 W15       30.11F
PEORIA         SUNNY     68  34  28 NW17G28   30.09F
LACON*         SUNNY     68  32  26 W15G25    30.06F
LINCOLN*       SUNNY     70  39  32 NW8       30.10F
SPRINGFIELD    SUNNY     73  38  27 NW13G22   30.13F
TAYLORVILLE    SUNNY     69  38  32 W13G23    30.13F
$$

ILZ033-039-045-046-055>057-062-063-261800-
EAST-CENTRAL ILLINOIS

CITY           SKY/WX    TMP DP  RH WIND       PRES   REMARKS
CHAMPAIGN      SUNNY     70  40  33 W17G25    30.09F
RANTOUL*       SUNNY     70  40  32 W18G25    30.07F
MATTOON        SUNNY     69  40  34 NW13G23   30.11F
PARIS*         CLOUDY    68  45  43 W8        30.11F
$$

ILZ079-100>102-261800-
SOUTHWEST ILLINOIS

CITY           SKY/WX    TMP DP  RH WIND       PRES   REMARKS
ALTON          MOSUNNY   68  41  37 NW9       30.16F
BELLEVILLE     SUNNY     71  48  42 NW10      30.14F
CAHOKIA*       SUNNY     72  40  31 NW13      30.16F
SPARTA*        PTSUNNY   67  53  60 NW6       30.18S
$$

ILZ064>066-069>071-074>076-080>082-084>086-088>090-092>094-261800-
SOUTH-CENTRAL ILLINOIS

CITY           SKY/WX    TMP DP  RH WIND       PRES   REMARKS
CARBONDALE     CLOUDY    67  55  65 N8        30.15F
CAIRO*         CLOUDY    66  55  67 N8        30.16F
EFFINGHAM*     MOSUNNY   69  49  49 W12       30.14F
MARION         PTSUNNY   70  55  60 N7        30.16F
MT. VERNON     CLOUDY    66  48  52 NW5       30.16S
CENTRALIA*     CLOUDY    69  49  47 NW8       30.14F
SALEM*         PTSUNNY   69  45  41 NW9       30.15F
METROPOLIS*    CLOUDY    66  56  70 N7        30.16F
$$

ILZ067-068-072-073-078-083-087-091-261800-
SOUTHEAST ILLINOIS

CITY           SKY/WX    TMP DP  RH WIND       PRES   REMARKS
LAWRENCEVILLE  CLOUDY    66  53  63 NW9       30.13F
FLORA*         CLOUDY    67  51  56 NW8       30.14F
FAIRFIELD*     CLOUDY    67  54  61 NW7       30.14S
HARRISBURG*    PTSUNNY   69  57  67 N8        30.15F
ROBINSON*      CLOUDY    66  50  57 N13       30.13F
CARMI*         PTSUNNY   69  55  60 NW5       30.13F
$$

ABBREVIATIONS USED IN REMARKS
   TC - TEMPERATURE IN CELSIUS
  WCI - WIND CHILL INDEX
   HX - HEAT INDEX
  VSB - VISIBILITY
$$





USA.gov is the U.S. government's official web portal to all federal, state and local government web resources and services.